This demonstration page uses our WeatherBlox Daily Observations layout. Learn more.

Left ArrowRight Arrow

39.92423, -83.80882

Hourly Observations for September 28, 2020

Temp ( °F °C ) Dew Point ( °F °C ) Humidity (%) Winds ( mph kmh ) Pressure ( in mb ) Visibility ( mi km ) Precip ( " mm )
12:56 am 00:56 Clear 62 16.7 62 16.7 100 100 S 5 7 29.78 1009 10 16 N/A
1:56 am 01:56 Partly Cloudy 61 16.1 61 16.1 100 100 S 5 7 29.78 1009 10 16 N/A
2:56 am 02:56 Mostly Cloudy 61 16.1 61 16.1 100 100 SSE 6 9 29.77 1008 10 16 N/A
3:56 am 03:56 Clear 61 16.1 61 16.1 100 100 SSE 3 6 29.75 1007 10 16 N/A
4:56 am 04:56 Mostly Cloudy 62 16.7 62 16.7 100 100 S 6 9 29.74 1007 10 16 N/A
5:56 am 05:56 Mostly Cloudy 62 16.7 62 16.7 100 100 S 7 11 29.74 1007 10 16 N/A
6:56 am 06:56 Mostly Clear 61 16.1 61 16.1 100 100 S 7 11 29.75 1007 10 16 N/A
7:56 am 07:56 Mostly Sunny 62 16.7 62 16.7 100 100 S 7 11 29.76 1008 10 16 N/A
8:56 am 08:56 Mostly Cloudy 65 18.3 64 17.8 97 97 SW 8 13 29.76 1008 10 16 N/A
9:56 am 09:56 Mostly Cloudy 68 20 64 17.8 87 87 SSW 9 15 29.75 1008 10 16 N/A
10:56 am 10:56 Partly Cloudy 71 21.7 65 18.3 81 81 S 8 13 29.72 1007 10 16 N/A
11:56 am 11:56 Mostly Cloudy 71 21.7 65 18.3 81 81 SSW 8 13 29.73 1007 10 16 N/A
12:06 pm 12:06 Mostly Cloudy with Light Rain 70 21 66 19 88 88 SSW 8 13 29.71 1006 10 16 0.00 0.00
12:23 pm 12:23 Mostly Cloudy with Light Rain 70 21 66 19 88 88 SSW 6 9 29.70 1006 10 16 0.00 0.00
12:54 pm 12:54 Mostly Cloudy 70 21 66 19 88 88 SSW 6 9 29.70 1006 10 16 0.00 0.00
12:56 pm 12:56 Mostly Cloudy with Light Rain 70 21.1 67 19.4 90 90 SW 8 13 29.72 1007 10 16 0.00 0.00
1:56 pm 13:56 Cloudy with Light Rain 70 21.1 68 20 93 93 SW 6 9 29.69 1006 10 16 0.00 0.00
2:07 pm 14:07 Cloudy 70 21 66 19 88 88 WSW 7 11 29.67 1005 10 16 0.00 0.00
2:56 pm 14:56 Cloudy with Light Rain 68 20 68 20 100 100 WSW 8 13 29.67 1005 6 10 0.02 0.51
3:16 pm 15:16 Cloudy with Rain 68 20 68 20 100 100 W 7 11 29.64 1004 8 13 0.00 0.00
3:25 pm 15:25 Cloudy with Heavy Rain 68 20 68 20 100 100 W 7 11 29.64 1004 3 4 0.01 0.25
3:32 pm 15:32 Cloudy with Heavy Rain 66 19 66 19 100 100 W 9 15 29.65 1004 2 3 0.01 0.25
3:42 pm 15:42 Cloudy with Heavy Rain 66 19 66 19 100 100 WSW 7 11 29.66 1004 2 2 0.02 0.51
3:56 pm 15:56 Cloudy with Heavy Rain 63 17.2 63 17.2 100 100 WNW 20 31 29.69 1005 1 2 0.03 0.76
4:04 pm 16:04 Cloudy with Rain 61 16 61 16 100 100 WNW 24 39 29.69 1005 3 5 0.01 0.25
4:26 pm 16:26 Cloudy with Heavy Rain 57 14 57 14 100 100 WNW 16 26 29.72 1006 5 8 0.02 0.51
4:46 pm 16:46 Cloudy with Light Rain 57 14 57 14 100 100 WNW 18 30 29.74 1007 10 16 0.02 0.51
4:56 pm 16:56 Cloudy with Light Rain 56 13.3 56 13.3 100 100 WNW 16 26 29.75 1008 7 11 0.03 0.76
5:17 pm 17:17 Cloudy with Light Rain 55 13 55 13 100 100 NW 12 19 29.75 1007 7 11 0.00 0.00
5:56 pm 17:56 Cloudy with Light Rain 56 13.3 56 13.3 100 100 NW 10 17 29.77 1008 7 11 0.02 0.51
6:56 pm 18:56 Cloudy with Light Rain 56 13.3 56 13.3 100 100 WNW 12 19 29.79 1009 4 6 0.01 0.25
7:42 pm 19:42 Cloudy with Light Rain 55 13 55 13 100 100 NW 12 19 29.83 1010 10 16 0.02 0.51
7:56 pm 19:56 Cloudy with Light Rain 54 12.2 54 12.2 100 100 WNW 8 13 29.84 1011 10 16 0.02 0.51
8:03 pm 20:03 Cloudy with Light Rain 54 12 54 12 100 100 WNW 7 11 29.84 1011 10 16 0.00 0.00
8:20 pm 20:20 Cloudy 54 12 54 12 100 100 WNW 7 11 29.84 1011 10 16 0.00 0.00
8:25 pm 20:25 Cloudy 54 12 54 12 100 100 WNW 7 11 29.84 1011 10 16 0.01 0.25
8:47 pm 20:47 Mostly Cloudy 54 12 54 12 100 100 NW 5 7 29.84 1011 10 16 0.01 0.25
8:56 pm 20:56 Partly Cloudy 54 12.2 54 12.2 100 100 WNW 5 7 29.84 1011 10 16 0.01 0.25
9:56 pm 21:56 Mostly Cloudy 54 12.2 54 12.2 100 100 W 5 7 29.86 1011 10 16 0.01 0.25
10:56 pm 22:56 Mostly Clear 54 12.2 54 12.2 100 100 WSW 6 9 29.87 1012 10 16 0.02 0.51
11:56 pm 23:56 Clear 53 11.7 53 11.7 100 100 SW 6 9 29.89 1012 10 16 0.01 0.25

Powered by AerisWeather